ONEWEB-0054, 45158

Orbit data source: Space-Track

ONEWEB-0054, 45158 is a payload satellite owned by One Web (UK) in LEO that was launched on Thu, 06 Feb 2020 UTC via a SOYUZ-2-1B launch vehicle from the Tyuratam Missile And Space Complex (TTMTR). Payloads include a variety of satellites, spacecraft, and rockets equipped with specific instruments for various scientific and technological missions. These include communications satellites like Starlink; space stations such as the ISS; scientific satellites like the Hubble; Earth observation satellites from companies like Planet Labs, Umbra, and HawkEye 360; GPS; miniature CubeSats for education and research; and military/defense satellites.

Loading next visibility...
ONEWEB-0054 details
Identifier
45158, 2020-008AD
Orbit
LEO
Last TLE update11 hours ago
Origin
Flag of UKOne Web (UK)
ManufacturerOne Web
MissionOperational Commercial Communications
Bus & MotorARROW, Unknown motor
Mass148 kg wet, ~140 kg dry
Launch date (UTC)
2020-02-06 (5 years ago)
Launch vehicle
SOYUZ-2-1B
Launch site
Tyuratam Missile And Space Complex (TTMTR)
Object type
Payload
Rocket body
Debris
Shape & HBRTrap Box + 2 Pan, 5 m
Radar Cross Section2.957 m², Large (>1 m²)

Expand to show TLE details & history

TLE from 11 hours ago
0 ONEWEB-0054
1 45158U 20008AD  24346.48348213 -.00000978  00000-0 -28383-2 0  9997
2 45158  87.8887 146.3492 0001489  96.6670 263.4626 13.10375227235646
Epoch: 2024-12-11T11:36Z
Definitive object data (Epoch: 2024-12-11T11:36:12.856Z)
Latitude-0.00008°
Longitude-108.38189°
Altitude1,224.724 km
Speed7.242 km/s
True Right ascension09h 45m 23s
True Declination0° 00' 00"
Sunlit
Object was in daylight at TLE epoch
Visualization TLE readout
Latitude-36.78638°
Longitude-110.0429°
Altitude1,236.424 km
Speed7.235 km/s
Apparent Right ascension09h 16m 30s
Apparent Declination-38° 12' 22"
Sunlit
Object is in daylight
Visualization observer readout
Local Sidereal Time20:48:45
Azimuth285.401° WNW
Elevation-84.35°
Doppler factor1
Orbital elements
Apogee altitude1,219.959 km
Perigee altitude1,217.696 km
Semi-major axis7,596.965 km
Eccentricity0.0001489
Inclination87.8887°
RAAN146.3492°
Arg. of periapsis96.667°
True anomaly263.44565°
Mean anomaly263.4626°
Eccentric anomaly263.45412°
Mean motion3.2778 °/min
BSTAR-0.0028383
Orbital period109.83 mins
Loading maneuver chart data...
Loading historical data...
Loading historical data...
Loading historical data...
Loading historical data...
Loading historical data...
Loading historical data...
Loading historical data...

ONEWEB-0054 Visibility forecast

Observer location: undefined°, undefined

Span
Click to sort rows by Start time (UTC) header in descending order
Start Az.
Max El. time (UTC)
Max El. Az.
Max El.
End time (UTC)
End Az.
14 mins2024-12-11 23:11:44.301Z357.868° N2024-12-11 23:18:44.301Z257.809° W44.844°2024-12-11 23:25:44.301Z184.535° SSW
4 mins2024-12-12 01:05:44.301Z304.556° NW2024-12-12 01:07:44.301Z287.148° WNW13.321°2024-12-12 01:09:44.301Z270.138° WNW
7 mins2024-12-12 09:45:44.301Z101.427° ESE2024-12-12 09:48:44.301Z72.853° E17.971°2024-12-12 09:52:44.301Z37.082° NE
13 mins2024-12-12 11:31:44.301Z187.056° SSW2024-12-12 11:37:44.301Z266.744° W44.073°2024-12-12 11:44:44.301Z357.017° N
6 mins2024-12-12 21:14:44.301Z50.85° ENE2024-12-12 21:16:44.301Z68.329° E14.224°2024-12-12 21:20:44.301Z102.21° ESE
|